FW1079 Weather Reports


Display with metric or nautical units.
time (UTC)temp
F
wind
direction
speed
MPH
gust
MPH
rain 1hr
in
rain 24hr
in
rain mn
in
humidity
%
barometer
mb
20260906043956 69 255 0.0 5.0 0.00 0.00 0.00 60 1019.0
20260906043457 69 253 4.0 7.0 0.00 0.00 0.00 60 1019.0
20260906042956 69 277 5.0 7.0 0.00 0.00 0.00 60 1019.0
20260906042456 69 292 0.0 7.0 0.00 0.00 0.00 60 1019.0
20260906041959 69 265 4.0 6.0 0.00 0.00 0.00 61 1019.0
20260906041456 69 260 4.0 6.0 0.00 0.00 0.00 63 1019.0
20260906040957 68 268 0.0 6.0 0.00 0.00 0.00 63 1019.0
20260906040456 69 273 3.0 5.0 0.00 0.00 0.00 63 1019.0
20260906035956 69 275 3.0 7.0 0.00 0.00 0.00 61 1019.0
20260906035459 69 258 5.0 8.0 0.00 0.00 0.00 61 1019.0
20260906034956 69 252 5.0 6.0 0.00 0.00 0.00 61 1019.0
20260906034457 69 275 4.0 6.0 0.00 0.00 0.00 62 1019.0
20260906033956 69 254 5.0 6.0 0.00 0.00 0.00 62 1019.0
20260906033456 69 260 0.0 0.0 0.00 0.00 0.00 63 1018.0
20260906032959 69 299 0.0 5.0 0.00 0.00 0.00 62 1018.0
20260906032459 69 270 4.0 5.0 0.00 0.00 0.00 62 1018.0
20260906031957 69 267 4.0 5.0 0.00 0.00 0.00 62 1018.0
20260906031456 69 248 0.0 6.0 0.00 0.00 0.00 62 1018.0
20260906030956 69 270 2.0 6.0 0.00 0.00 0.00 62 1018.0
20260906030456 69 271 0.0 0.0 0.00 0.00 0.00 62 1018.0
20260906025957 69 268 2.0 6.0 0.00 0.00 0.00 62 1018.0
20260906025456 69 257 0.0 5.0 0.00 0.00 0.00 62 1018.0
20260906024956 69 265 2.0 5.0 0.00 0.00 0.00 63 1018.0
20260906024459 69 275 0.0 5.0 0.00 0.00 0.00 64 1018.0
20260906023956 69 288 0.0 7.0 0.00 0.00 0.00 64 1018.0
20260906023456 69 263 5.0 6.0 0.00 0.00 0.00 64 1018.0
20260906022956 69 281 4.0 6.0 0.00 0.00 0.00 64 1018.0
20260906022457 70 254 3.0 7.0 0.00 0.00 0.00 63 1018.0
20260906021959 70 277 3.0 8.0 0.00 0.00 0.00 62 1018.0
20260906021459 70 270 5.0 8.0 0.00 0.00 0.00 62 1018.0
20260906020956 70 264 5.0 6.0 0.00 0.00 0.00 62 1018.0
20260906020456 70 265 3.0 6.0 0.00 0.00 0.00 63 1018.0
20260906015957 70 259 4.0 6.0 0.00 0.00 0.00 64 1018.0
20260906015456 69 277 4.0 6.0 0.00 0.00 0.00 65 1018.0
20260906014957 70 305 4.0 6.0 0.00 0.00 0.00 64 1018.0
20260906014456 70 273 0.0 3.0 0.00 0.00 0.00 64 1018.0
20260906013956 70 304 0.0 4.0 0.00 0.00 0.00 65 1018.0
20260906013456 70 292 3.0 6.0 0.00 0.00 0.00 64 1018.0
20260906012956 70 271 4.0 7.0 0.00 0.00 0.00 64 1018.0
20260906012500 70 271 4.0 8.0 0.00 0.00 0.00 63 1018.0
20260906011956 70 252 4.0 8.0 0.00 0.00 0.00 63 1018.0
20260906011456 70 254 6.0 8.0 0.00 0.00 0.00 64 1018.0
20260906010956 70 264 5.0 7.0 0.00 0.00 0.00 65 1018.0
20260906010459 70 266 4.0 7.0 0.00 0.00 0.00 66 1018.0
20260906005956 70 248 5.0 6.0 0.00 0.00 0.00 67 1018.0
20260906005459 70 274 0.0 4.0 0.00 0.00 0.00 67 1018.0
20260906004956 70 283 0.0 4.0 0.00 0.00 0.00 67 1018.0
20260906004456 70 277 0.0 5.0 0.00 0.00 0.00 67 1018.0
20260906003956 70 292 0.0 6.0 0.00 0.00 0.00 67 1018.0
20260906003459 70 288 0.0 2.0 0.00 0.00 0.00 68 1018.0
20260906002956 70 302 2.0 4.0 0.00 0.00 0.00 68 1018.0
20260906002456 70 282 0.0 5.0 0.00 0.00 0.00 68 1018.0
20260906001956 70 286 4.0 6.0 0.00 0.00 0.00 68 1018.0
20260906001456 70 247 4.0 5.0 0.00 0.00 0.00 69 1018.0
20260906000959 70 264 0.0 5.0 0.00 0.00 0.00 69 1018.0
20260906000459 70 282 3.0 5.0 0.00 0.00 0.00 69 1018.0
20260906000000 70 267 4.0 6.0 0.00 0.00 0.00 70 1018.0
20260905235458 70 257 3.0 6.0 0.00 0.00 0.00 70 1018.0
20260905234956 70 291 2.0 5.0 0.00 0.00 0.00 69 1018.0
20260905234500 71 260 4.0 7.0 0.00 0.00 0.00 68 1018.0
20260905233956 71 259 4.0 7.0 0.00 0.00 0.00 68 1018.0
20260905233456 71 268 5.0 8.0 0.00 0.00 0.00 68 1018.0
20260905232956 71 286 0.0 7.0 0.00 0.00 0.00 69 1018.0
20260905232457 71 251 0.0 6.0 0.00 0.00 0.00 70 1018.0
20260905231956 70 287 0.0 0.0 0.00 0.00 0.00 71 1018.0
20260905231456 71 280 0.0 0.0 0.00 0.00 0.00 71 1018.0
20260905230956 71 259 0.0 0.0 0.00 0.00 0.00 71 1018.0
20260905230456 71 284 0.0 7.0 0.00 0.00 0.00 72 1018.0
20260905225959 71 265 4.0 5.0 0.00 0.00 0.00 72 1018.0
20260905225456 71 274 2.0 3.0 0.00 0.00 0.00 72 1018.0
20260905224957 71 257 2.0 5.0 0.00 0.00 0.00 72 1018.0
20260905224456 71 271 0.0 4.0 0.00 0.00 0.00 72 1018.0
20260905223956 71 252 4.0 4.0 0.00 0.00 0.00 72 1018.0
20260905223456 71 265 3.0 5.0 0.00 0.00 0.00 72 1018.0
20260905222956 71 283 3.0 4.0 0.00 0.00 0.00 72 1018.0
20260905222456 71 290 2.0 5.0 0.00 0.00 0.00 72 1018.0
20260905221956 71 302 0.0 5.0 0.00 0.00 0.00 72 1018.0
20260905221456 71 266 0.0 5.0 0.00 0.00 0.00 72 1018.0
20260905220959 71 264 4.0 6.0 0.00 0.00 0.00 72 1018.0
20260905220456 71 279 4.0 6.0 0.00 0.00 0.00 72 1018.0
20260905215956 71 282 0.0 0.0 0.00 0.00 0.00 72 1018.0
20260905215459 72 301 0.0 0.0 0.00 0.00 0.00 72 1018.0
20260905214956 72 260 0.0 0.0 0.00 0.00 0.00 72 1018.0
20260905214459 72 243 0.0 0.0 0.00 0.00 0.00 72 1018.0
20260905213956 72 261 0.0 0.0 0.00 0.00 0.00 72 1018.0
20260905213459 72 308 0.0 0.0 0.00 0.00 0.00 72 1018.0
20260905212956 73 267 0.0 0.0 0.00 0.00 0.00 72 1018.0
20260905212456 73 304 0.0 0.0 0.00 0.00 0.00 74 1018.0
20260905211956 73 289 0.0 0.0 0.00 0.00 0.00 75 1018.0
20260905211459 72 276 0.0 0.0 0.00 0.00 0.00 75 1018.0
20260905210956 72 270 0.0 0.0 0.00 0.00 0.00 74 1018.0
20260905210456 72 304 0.0 0.0 0.00 0.00 0.00 74 1018.0
20260905205956 72 304 0.0 0.0 0.00 0.00 0.00 75 1018.0
20260905205456 72 304 0.0 0.0 0.00 0.00 0.00 76 1018.0
20260905204956 72 256 0.0 0.0 0.00 0.00 0.00 75 1018.0
20260905204459 72 288 0.0 0.0 0.00 0.00 0.00 74 1018.0
20260905203957 72 264 0.0 0.0 0.00 0.00 0.00 74 1018.0
20260905203456 72 309 0.0 0.0 0.00 0.00 0.00 74 1018.0
20260905202959 73 307 0.0 0.0 0.00 0.00 0.00 74 1018.0
20260905202456 73 302 0.0 0.0 0.00 0.00 0.00 73 1018.0
20260905201956 73 316 0.0 0.0 0.00 0.00 0.00 73 1018.0
20260905201458 73 310 0.0 0.0 0.00 0.00 0.00 73 1018.0
20260905200956 73 312 0.0 0.0 0.00 0.00 0.00 72 1018.0
20260905200456 73 292 0.0 0.0 0.00 0.00 0.00 72 1018.0
20260905195956 73 308 0.0 0.0 0.00 0.00 0.00 71 1018.0
20260905195459 73 313 0.0 0.0 0.00 0.00 0.00 71 1018.0
20260905194956 74 316 0.0 0.0 0.00 0.00 0.00 71 1018.0
20260905194459 74 302 0.0 0.0 0.00 0.00 0.00 70 1018.0
20260905193955 74 310 0.0 0.0 0.00 0.00 0.00 70 1018.0
20260905193456 74 309 0.0 0.0 0.00 0.00 0.00 69 1017.0
20260905192959 74 314 0.0 0.0 0.00 0.00 0.00 69 1017.0
20260905192455 74 305 0.0 0.0 0.00 0.00 0.00 69 1017.0
20260905191955 74 325 0.0 0.0 0.00 0.00 0.00 69 1017.0
20260905191457 74 312 0.0 0.0 0.00 0.00 0.00 68 1017.0
20260905190956 75 318 0.0 0.0 0.00 0.00 0.00 67 1017.0
20260905190456 75 318 0.0 0.0 0.00 0.00 0.00 65 1017.0
20260905185956 75 307 0.0 0.0 0.00 0.00 0.00 66 1017.0
20260905185456 76 300 0.0 0.0 0.00 0.00 0.00 63 1017.0
20260905184955 76 313 0.0 0.0 0.00 0.00 0.00 64 1017.0
20260905184455 77 322 0.0 0.0 0.00 0.00 0.00 63 1017.0
20260905183958 76 329 0.0 0.0 0.00 0.00 0.00 61 1017.0
20260905183455 77 333 0.0 0.0 0.00 0.00 0.00 60 1017.0
20260905182955 78 331 0.0 0.0 0.00 0.00 0.00 59 1017.0
20260905182458 78 332 0.0 0.0 0.00 0.00 0.00 58 1017.0
20260905181955 79 326 0.0 0.0 0.00 0.00 0.00 58 1017.0
20260905181455 79 326 0.0 0.0 0.00 0.00 0.00 57 1017.0
20260905180955 80 299 0.0 0.0 0.00 0.00 0.00 56 1017.0
20260905180458 80 45 0.0 0.0 0.00 0.00 0.00 56 1017.0
20260905175955 80 70 0.0 0.0 0.00 0.00 0.00 54 1017.0
20260905175459 81 70 0.0 0.0 0.00 0.00 0.00 53 1017.0
20260905174955 82 71 0.0 0.0 0.00 0.00 0.00 52 1017.0
20260905174455 82 71 0.0 0.0 0.00 0.00 0.00 51 1017.0
20260905173955 83 71 0.0 0.0 0.00 0.00 0.00 51 1017.0
20260905173458 83 71 0.0 0.0 0.00 0.00 0.00 51 1017.0
20260905172955 84 71 0.0 0.0 0.00 0.00 0.00 51 1017.0
20260905172455 84 71 0.0 0.0 0.00 0.00 0.00 50 1017.0
20260905171955 84 71 0.0 0.0 0.00 0.00 0.00 50 1016.0
20260905171455 85 72 0.0 0.0 0.00 0.00 0.00 49 1016.0
20260905170955 85 90 0.0 0.0 0.00 0.00 0.00 49 1016.0
20260905170455 85 92 0.0 0.0 0.00 0.00 0.00 49 1016.0
20260905165958 86 95 0.0 0.0 0.00 0.00 0.00 47 1016.0
20260905165458 86 108 0.0 0.0 0.00 0.00 0.00 47 1016.0
20260905164955 86 94 0.0 0.0 0.00 0.00 0.00 46 1016.0
20260905164455 87 88 0.0 0.0 0.00 0.00 0.00 46 1016.0
20260905163958 87 107 0.0 0.0 0.00 0.00 0.00 45 1016.0
20260905163458 87 85 0.0 0.0 0.00 0.00 0.00 45 1016.0
20260905162955 87 112 0.0 0.0 0.00 0.00 0.00 48 1016.0
20260905162455 88 103 0.0 8.0 0.00 0.00 0.00 50 1016.0
20260905161955 88 96 6.0 8.0 0.00 0.00 0.00 51 1016.0
20260905161455 89 89 0.0 10.0 0.00 0.00 0.00 50 1016.0
20260905160955 90 83 7.0 8.0 0.00 0.00 0.00 48 1016.0
20260905160455 91 96 2.0 8.0 0.00 0.00 0.00 46 1016.0
20260905155955 92 75 4.0 7.0 0.00 0.00 0.00 43 1016.0
20260905155455 92 123 0.0 6.0 0.00 0.00 0.00 38 1016.0
20260905154955 92 61 0.0 4.0 0.00 0.00 0.00 37 1016.0
20260905154455 93 44 0.0 4.0 0.00 0.00 0.00 37 1016.0
20260905153955 93 49 0.0 0.0 0.00 0.00 0.00 36 1016.0
20260905153455 94 57 0.0 0.0 0.00 0.00 0.00 37 1016.0
20260905152958 94 46 0.0 4.0 0.00 0.00 0.00 37 1016.0
20260905152455 94 88 0.0 6.0 0.00 0.00 0.00 36 1016.0
20260905151955 94 98 0.0 2.0 0.00 0.00 0.00 36 1016.0
20260905151455 94 84 0.0 6.0 0.00 0.00 0.00 36 1016.0
20260905150958 94 38 0.0 0.0 0.00 0.00 0.00 36 1016.0
20260905150455 94 79 0.0 2.0 0.00 0.00 0.00 35 1016.0
20260905145955 94 102 0.0 6.0 0.00 0.00 0.00 35 1016.0
20260905145458 94 139 0.0 0.0 0.00 0.00 0.00 34 1016.0
20260905144955 94 100 0.0 0.0 0.00 0.00 0.00 35 1016.0
20260905144456 94 79 0.0 0.0 0.00 0.00 0.00 36 1016.0
20260905143955 94 104 0.0 5.0 0.00 0.00 0.00 37 1016.0
20260905143455 94 122 2.0 5.0 0.00 0.00 0.00 37 1016.0
20260905142959 94 101 2.0 6.0 0.00 0.00 0.00 37 1016.0
20260905142455 94 119 0.0 6.0 0.00 0.00 0.00 37 1016.0
20260905141955 94 124 4.0 8.0 0.00 0.00 0.00 37 1016.0
20260905141458 94 95 0.0 8.0 0.00 0.00 0.00 37 1016.0
20260905140958 94 96 0.0 6.0 0.00 0.00 0.00 38 1016.0
20260905140455 94 110 5.0 7.0 0.00 0.00 0.00 38 1016.0
20260905135955 94 110 4.0 6.0 0.00 0.00 0.00 38 1016.0
20260905135455 94 105 0.0 0.0 0.00 0.00 0.00 38 1016.0
20260905134956 94 91 0.0 0.0 0.00 0.00 0.00 38 1016.0
20260905134458 94 68 0.0 8.0 0.00 0.00 0.00 38 1016.0
20260905133955 94 103 0.0 7.0 0.00 0.00 0.00 38 1016.0
20260905133459 93 22 0.0 0.0 0.00 0.00 0.00 38 1016.0
20260905132955 93 72 0.0 0.0 0.00 0.00 0.00 38 1016.0
20260905132455 92 24 0.0 0.0 0.00 0.00 0.00 39 1016.0
20260905131958 92 42 0.0 0.0 0.00 0.00 0.00 41 1016.0
20260905131455 92 6 4.0 8.0 0.00 0.00 0.00 42 1016.0
20260905130955 92 109 3.0 10.0 0.00 0.00 0.00 41 1016.0
20260905130455 92 97 6.0 10.0 0.00 0.00 0.00 42 1016.0
20260905125955 92 115 6.0 10.0 0.00 0.00 0.00 42 1016.0
20260905125455 93 129 7.0 10.0 0.00 0.00 0.00 43 1016.0
20260905124955 93 87 7.0 10.0 0.00 0.00 0.00 42 1016.0
20260905124455 93 100 8.0 12.0 0.00 0.00 0.00 41 1016.0
20260905123955 93 110 7.0 10.0 0.00 0.00 0.00 40 1016.0
20260905123455 94 111 8.0 10.0 0.00 0.00 0.00 40 1016.0
20260905122955 94 107 7.0 11.0 0.00 0.00 0.00 39 1016.0
20260905122455 94 111 8.0 11.0 0.00 0.00 0.00 37 1016.0
20260905121958 94 108 6.0 10.0 0.00 0.00 0.00 37 1016.0
20260905121458 95 111 8.0 12.0 0.00 0.00 0.00 37 1016.0
20260905120957 95 110 4.0 8.0 0.00 0.00 0.00 34 1016.0
20260905120455 96 47 4.0 10.0 0.00 0.00 0.00 32 1016.0
20260905115958 96 75 7.0 8.0 0.00 0.00 0.00 31 1016.0
20260905115455 96 114 8.0 11.0 0.00 0.00 0.00 31 1016.0
20260905114955 97 79 8.0 12.0 0.00 0.00 0.00 30 1016.0
20260905114455 97 109 8.0 10.0 0.00 0.00 0.00 30 1016.0
20260905113955 97 111 5.0 10.0 0.00 0.00 0.00 30 1016.0
20260905113456 97 97 5.0 10.0 0.00 0.00 0.00 30 1016.0
20260905112955 96 81 7.0 10.0 0.00 0.00 0.00 30 1016.0
20260905112455 96 85 5.0 10.0 0.00 0.00 0.00 30 1016.0
20260905111956 96 119 5.0 9.0 0.00 0.00 0.00 30 1016.0
20260905111455 96 56 0.0 8.0 0.00 0.00 0.00 30 1016.0
20260905110955 96 115 5.0 8.0 0.00 0.00 0.00 30 1016.0
20260905110458 96 97 0.0 8.0 0.00 0.00 0.00 30 1016.0
20260905105955 96 45 5.0 10.0 0.00 0.00 0.00 30 1016.0
20260905105455 96 55 6.0 8.0 0.00 0.00 0.00 31 1016.0
20260905104955 96 108 6.0 8.0 0.00 0.00 0.00 31 1016.0
20260905104456 96 116 7.0 8.0 0.00 0.00 0.00 31 1016.0
20260905103955 95 97 3.0 8.0 0.00 0.00 0.00 31 1016.0
20260905103455 95 95 7.0 10.0 0.00 0.00 0.00 31 1016.0
20260905102958 95 95 0.0 0.0 0.00 0.00 0.00 31 1016.0
20260905102456 95 66 0.0 0.0 0.00 0.00 0.00 31 1016.0
20260905101955 95 78 0.0 7.0 0.00 0.00 0.00 32 1017.0
20260905101458 95 79 4.0 8.0 0.00 0.00 0.00 32 1017.0
20260905100955 95 84 0.0 8.0 0.00 0.00 0.00 31 1017.0
20260905100455 95 91 5.0 8.0 0.00 0.00 0.00 31 1017.0
20260905095955 95 97 4.0 8.0 0.00 0.00 0.00 31 1017.0
20260905095458 94 71 4.0 8.0 0.00 0.00 0.00 32 1017.0
20260905094955 94 87 7.0 8.0 0.00 0.00 0.00 32 1017.0
20260905094455 94 97 6.0 8.0 0.00 0.00 0.00 32 1017.0
20260905093955 94 97 7.0 9.0 0.00 0.00 0.00 33 1017.0
20260905093455 94 65 0.0 0.0 0.00 0.00 0.00 33 1017.0
20260905092955 93 57 0.0 4.0 0.00 0.00 0.00 33 1017.0
20260905092455 93 72 4.0 6.0 0.00 0.00 0.00 34 1017.0
20260905091954 93 80 0.0 0.0 0.00 0.00 0.00 35 1017.0
20260905091456 92 77 3.0 6.0 0.00 0.00 0.00 37 1017.0
20260905090955 92 78 4.0 5.0 0.00 0.00 0.00 37 1017.0
20260905090458 91 78 2.0 6.0 0.00 0.00 0.00 37 1017.0
20260905085957 91 93 2.0 6.0 0.00 0.00 0.00 38 1017.0
20260905085455 91 74 4.0 8.0 0.00 0.00 0.00 38 1017.0
20260905084954 91 103 5.0 8.0 0.00 0.00 0.00 38 1017.0
20260905084454 90 123 3.0 6.0 0.00 0.00 0.00 38 1017.0
20260905083955 90 95 3.0 6.0 0.00 0.00 0.00 38 1017.0
20260905083455 89 107 0.0 4.0 0.00 0.00 0.00 39 1017.0
20260905082954 89 98 0.0 7.0 0.00 0.00 0.00 39 1017.0
20260905082454 89 114 4.0 6.0 0.00 0.00 0.00 39 1017.0
20260905081956 89 108 5.0 8.0 0.00 0.00 0.00 39 1017.0
20260905081454 89 137 0.0 0.0 0.00 0.00 0.00 39 1017.0
20260905080955 88 100 0.0 0.0 0.00 0.00 0.00 39 1017.0
20260905080459 88 91 0.0 0.0 0.00 0.00 0.00 39 1017.0
20260905075955 87 87 0.0 0.0 0.00 0.00 0.00 39 1017.0
20260905075454 87 98 0.0 8.0 0.00 0.00 0.00 40 1017.0
20260905074955 87 83 6.0 6.0 0.00 0.00 0.00 40 1017.0
20260905074454 86 94 5.0 6.0 0.00 0.00 0.00 40 1017.0
20260905073954 86 98 2.0 6.0 0.00 0.00 0.00 41 1017.0
20260905073455 85 92 0.0 5.0 0.00 0.00 0.00 43 1017.0
20260905072954 85 60 0.0 2.0 0.00 0.00 0.00 44 1017.0
20260905072454 85 85 0.0 0.0 0.00 0.00 0.00 44 1017.0
20260905071957 85 100 0.0 0.0 0.00 0.00 0.00 44 1017.0
20260905071455 84 103 0.0 0.0 0.00 0.00 0.00 43 1017.0
20260905070955 83 266 0.0 0.0 0.00 0.00 0.00 42 1017.0
20260905070454 82 232 0.0 0.0 0.00 0.00 0.00 43 1017.0
20260905065957 82 223 0.0 0.0 0.00 0.00 0.00 43 1017.0
20260905065455 80 238 0.0 0.0 0.00 0.00 0.00 44 1017.0
20260905064955 79 239 0.0 0.0 0.00 0.00 0.00 46 1017.0
20260905064454 79 212 0.0 0.0 0.00 0.00 0.00 47 1017.0
20260905063954 78 212 0.0 0.0 0.00 0.00 0.00 47 1017.0
20260905063454 78 211 0.0 0.0 0.00 0.00 0.00 47 1017.0
20260905062954 77 225 0.0 0.0 0.00 0.00 0.00 48 1017.0
20260905062454 76 263 0.0 6.0 0.00 0.00 0.00 49 1017.0
20260905061954 75 280 0.0 5.0 0.00 0.00 0.00 51 1017.0
20260905061454 74 256 0.0 0.0 0.00 0.00 0.00 51 1017.0
20260905060954 74 220 0.0 0.0 0.00 0.00 0.00 51 1017.0
20260905060454 73 209 0.0 0.0 0.00 0.00 0.00 52 1017.0
20260905055954 73 253 0.0 0.0 0.00 0.00 0.00 52 1017.0
20260905055455 73 229 0.0 5.0 0.00 0.00 0.00 52 1017.0
20260905054955 73 230 3.0 6.0 0.00 0.00 0.00 52 1017.0
20260905054454 73 263 0.0 6.0 0.00 0.00 0.00 52 1017.0
20260905053954 72 210 0.0 0.0 0.00 0.00 0.00 52 1017.0
20260905053457 71 270 0.0 0.0 0.00 0.00 0.00 54 1016.0
20260905052957 71 264 0.0 0.0 0.00 0.00 0.00 54 1016.0
20260905052454 70 257 2.0 6.0 0.00 0.00 0.00 55 1016.0
20260905051954 70 205 0.0 4.0 0.00 0.00 0.00 55 1016.0
20260905051455 70 231 0.0 0.0 0.00 0.00 0.00 55 1016.0
20260905050954 70 214 0.0 6.0 0.00 0.00 0.00 55 1016.0
20260905050457 70 210 4.0 6.0 0.00 0.00 0.00 54 1016.0
20260905045955 70 249 0.0 4.0 0.00 0.00 0.00 54 1016.0
20260905045454 70 254 0.0 5.0 0.00 0.00 0.00 54 1016.0
20260905044954 70 229 4.0 6.0 0.00 0.00 0.00 54 1016.0
20260905044454 70 253 4.0 7.0 0.00 0.00 0.00 54 1016.0